Вернуться в каталог

COSMOS 647

АктивенВоенныеLEO
NORAD 7271·PAYLOAD·🇷🇺 Russia

Запущен Apr 23, 1974 с Plesetsk Cosmodrome

Loading…

Ближайшие Пролёты (ближайшие 24 часа)

TLE

СвежийSource: Space-Track

Эпоха: Sep 14, 2026, 09:45 UTC

1 07271U 74024G   26257.40680421 -.00000032  00000-0 -10029-3 0  9993
2 07271  74.0169  53.9260 0038963  37.4535 351.8903 12.52877519396236

Отслеживайте COSMOS 647 в реальном времени с AllMySat

Download on the App Store